Location: Maiden
(35.5760°N, 81.2120°W)
Time: 02:58:30
(UTC-04:00)

Landsat 7 - Pass Details

Date: 02 August 2020
Orbit: 701 x 703 km, 98.1° (Epoch: 11 August)

Event Time Altitude Azimuth Distance (km) Brightness Sun altitude
Exits shadow 22:42:39 68° 170° (S) 755 3.7 -23.7°
Maximum altitude 22:43:16 89° 256° (WSW) 707 3.7 -23.8°
Drops below altitude 10° 22:48:02 10° 347° (NNW) 2,172 7.1 -24.5°
Sets 22:50:18 0° 348° (NNW) 3,094 8.1 -24.8°
